Voltar ao catálogo

STARLINK-3912

AtivoComunicaçõesVLEO
NORAD 52502·PAYLOAD·🇺🇸 United States

Lançado May 6, 2022 de Cape Canaveral Space Force Station

Loading…

Próximas Passagens (próximas 24 horas)

TLE

AtualizadoSource: CelesTrak SupGP

Época: Sep 14, 2026, 21:34 UTC

1 52502C 22049BD  26257.89909722  .00052916  00000+0  15146-2 0  2577
2 52502  53.1568 263.6346 0001158  86.3769 208.7154 15.35359346    10

Acompanhe STARLINK-3912 em tempo real com AllMySat

Download on the App Store